Location: Baia de Cri?
(46.1667°N, 22.7167°E)
Time: 19:34:21
(UTC+00:00)

Tiangong - Pass Details

Date: 17 March 2026
Orbit: 375 x 384 km, 41.5° (Epoch: 21 April)

Event Time Altitude Azimuth Distance (km) Brightness Sun altitude
Exits shadow 03:39:50 16° 239° (WSW) 1,091 -0.4 -10.9°
Maximum altitude 03:41:53 35° 180° (S) 649 -1.1 -10.6°
Drops below altitude 10° 03:44:49 10° 113° (ESE) 1,412 1.7 -10.1°
Sets 03:47:00 0° 104° (ESE) 2,270 3.2 -9.7°
